Location: Nairn
(57.5833°N, 3.8667°W)
Time: 17:11:38
(UTC+00:00)

Cosmos 2219 Rocket - Pass Details

Date: 07 August 2020
Orbit: 826 x 848 km, 71.0° (Epoch: 22 September)

Event Time Altitude Azimuth Distance (km) Brightness Sun altitude
Rises 01:43:54 0° 320° (NW) 3,416 5.8 -14.1°
Reaches altitude 10° 01:46:52 10° 306° (NW) 2,479 4.8 -14.0°
Maximum altitude 01:51:03 22° 258° (WSW) 1,788 3.6 -13.8°
Enters shadow 01:53:24 17° 226° (SW) 2,025 3.6 -13.7°
